[[{"header":{"parameterUnit":"m.s-1","parameterCategory":2,"la1":30.2991,"la2":30.254,"lo1":-89.0895,"lo2":-89.0444,"dy":0.0017,"dx":0.0017,"nx":28,"ny":28,"refTime":"2023-10-20T09:00:00:Z","depth":"0","parameterNumber":2,"parameterNumberName":"U-component_of_CURRENTS"},"data":[0,0,0,0,0,0,0,0,0,0,0,0,0,0,0,0,0,0,0,0,0,0,0,0,0,0,0,0,0,0,0,0,0,0,0,0,0,0,0,0,0,0,0,0,0,0,0,0,0,0,0,0,0,0,0,0,0,0,0.3334,0.3334,0,0.3383,0.3383,0.3384,0.3418,0.3418,0.3418,0.3419,0.3432,0.3431,0.3431,0,0,0,0,0,0,0,0,0,0,0,0,0,0.334,0.3339,0.3334,0.3335,0.3335,0.3383,0.3383,0.3384,0.3417,0.3418,0.3419,0.3419,0.3432,0.3431,0.3431,0,0,0,0,0,0,0,0,0,0,0,0,0,0.3356,0.3338,0.3334,0.3359,0.3362,0.3383,0.3383,0.3384,0.3417,0.3418,0.3419,0.3419,0.3432,0.3431,0.3431,0.3418,0,0,0.3431,0.3431,0,0,0,0,0,0,0,0,0.3354,0.3355,0.3355,0.3358,0.3361,0.3396,0.339,0.3394,0.3417,0.3394,0.3419,0.342,0.3417,0.3418,0.3424,0.3418,0.3419,0.3431,0.3431,0.3431,0.3431,0,0,0,0,0,0,0,0.3353,0.3354,0.3351,0.3356,0.3359,0.3393,0.3395,0.3391,0.3399,0.3396,0.34,0.3408,0.3418,0.3424,0.3424,0.3419,0.3431,0.3431,0.3431,0.3431,0.3482,0.3483,0,0,0,0,0,0,0.3346,0.3352,0.335,0.3353,0.3362,0.3392,0.3394,0.3383,0.34,0.3404,0.3407,0.3409,0.3424,0.3424,0.3425,0.3494,0.3431,0.3431,0.3431,0.348,0.3482,0.3484,0,0,0,0,0,0,0.3346,0.3345,0.3348,0.3357,0.336,0.3391,0.3378,0.3383,0.3394,0.3409,0.3412,0.3413,0.3424,0.3425,0.3439,0.3491,0.3431,0.3431,0.3479,0.3481,0.3483,0.3577,0,0,0,0,0,0,0.3346,0.3344,0.3335,0.3355,0.3359,0.3383,0.3378,0.3384,0.3399,0.3402,0.3415,0.3417,0.3425,0.344,0.3439,0.349,0.3431,0.3477,0.348,0.3482,0.3572,0.3582,0.3591,0,0,0,0,0,0.3345,0.3341,0.3334,0.3334,0.3344,0.3384,0.339,0.3413,0.3399,0.342,0.3422,0.3417,0.3457,0.344,0.344,0.3492,0.3476,0.3479,0.3482,0.3568,0.358,0.3591,0,0,0,0,0,0,0.3339,0.3344,0.3337,0.3332,0.3363,0.3391,0.341,0.341,0.3426,0.3424,0.3423,0.3426,0.3466,0.3452,0.3433,0.3513,0.347,0.3473,0.3536,0.3547,0.3556,0.3528,0.3431,0,0,0,0,0,0.333,0.3327,0.3346,0.3345,0.3359,0.3376,0.3392,0.3408,0.3425,0.3432,0.3441,0.3451,0.3477,0.3489,0.3505,0.3532,0.3514,0.3567,0.3577,0.3585,0.3561,0.3601,0.3612,0.3494,0.3494,0.3494,0,0,0.3325,0.333,0.3326,0.3345,0.3364,0.3395,0.3388,0.3421,0.3447,0.3429,0.3462,0.3479,0.3489,0.3541,0.3557,0.3536,0.361,0.3589,0.3596,0.3567,0.3606,0.3617,0.3627,0.3496,0.3496,0.3496,0,0,0.333,0.3321,0.3326,0.3357,0.3393,0.3413,0.342,0.3452,0.3469,0.3498,0.3506,0.3543,0.3565,0.3601,0.3615,0.3673,0.3658,0.369,0.3718,0.3759,0.3769,0.3777,0.3774,0.3781,0.3697,0.3697,0.3697,0,0.3322,0.3328,0.3341,0.3369,0.34,0.3418,0.3451,0.3473,0.3508,0.3521,0.352,0.3578,0.3595,0.3659,0.3692,0.3697,0.3697,0.3681,0.3772,0.378,0.3787,0.3781,0.3788,0.3702,0.3701,0.3701,0.37,0,0.3343,0.3353,0.3368,0.3402,0.3443,0.3477,0.3517,0.3541,0.3554,0.3578,0.3634,0.3664,0.3695,0.373,0.3727,0.38,0.3776,0.3782,0.3745,0.3804,0.3795,0.38,0.3709,0.3707,0.3706,0.3705,0,0,0.3298,0.3364,0.3367,0.3378,0.3464,0.3481,0.3545,0.3593,0.3603,0.3658,0.3691,0.376,0.377,0.3784,0.3809,0.3846,0.3911,0.3835,0.3835,0.3832,0.3974,0.3816,0.3806,0.3944,0.3945,0.3946,0.3949,0,0.3305,0.3344,0.3397,0.3436,0.3456,0.3516,0.3562,0.3613,0.3655,0.3692,0.3745,0.3787,0.3795,0.382,0.3866,0.3907,0.3928,0.3907,0.3913,0.3912,0.3766,0.3808,0.3657,0.3633,0.3954,0.3955,0.3955,0,0.3301,0.3327,0.3372,0.3421,0.3436,0.347,0.3531,0.3581,0.366,0.3696,0.3764,0.38,0.3881,0.3869,0.3953,0.3943,0.3949,0.3968,0.3969,0.3782,0.3763,0.3625,0.3631,0.3598,0.3963,0.3962,0.3962,0,0.3235,0.3296,0.3322,0.3349,0.3424,0.3446,0.3487,0.3572,0.3622,0.3704,0.3751,0.3834,0.3885,0.393,0.3977,0.3974,0.4045,0.405,0.3901,0.389,0.3734,0.3705,0.37,0.4075,0.4075,0.4075,0.4075,0,0.3213,0.3217,0.3276,0.3286,0.3304,0.3382,0.3429,0.3475,0.3581,0.3631,0.3741,0.3793,0.3905,0.3965,0.3988,0.3954,0.4057,0.3887,0.388,0.376,0.3734,0.3673,0.3669,0.4075,0.4075,0.4075,0.4075,0,0.3141,0.3184,0.3196,0.3256,0.3275,0.3284,0.3401,0.3427,0.3536,0.3613,0.3648,0.3789,0.3838,0.3915,0.3985,0.3946,0.3835,0.3901,0.3724,0.3692,0.3459,0.3465,0.3249,0.3174,0.3713,0.3709,0.3706,0,0.3108,0.3111,0.3159,0.3166,0.3193,0.3239,0.3274,0.339,0.3438,0.3591,0.361,0.3704,0.3727,0.3772,0.373,0.3704,0.3681,0.3532,0.3476,0.3402,0.3408,0.3302,0.325,0.3325,0.3319,0.3314,0.331,0,0.3056,0.3073,0.3092,0.3102,0.312,0.3157,0.3212,0.3246,0.3369,0.342,0.3465,0.35,0.353,0.3435,0.3412,0.3388,0.3363,0.3418,0.3421,0.314,0.2948,0.2888,0.3357,0.3265,0.327,0.3273,0.3275,0.3277,0.3014,0.3009,0.3032,0.3017,0.3039,0.3033,0.301,0.3069,0.3099,0.3109,0.3243,0.3209,0.3222,0.3145,0.3102,0.2959,0.2984,0.2887,0.2913,0.2822,0.2687,0.3007,0.2856,0.2858,0.2859,0.2861,0.2862,0,0.2941,0.2938,0.2941,0.2906,0.286,0.2914,0.2924,0.2861,0.2794,0.2863,0.2852,0.2827,0.2741,0.2751,0.2646,0.2531,0.2443,0.2486,0.2373,0.2363,0.273,0.2653,0.2354,0.2354,0.2354,0.2354,0.2354,0.2354,0.2906,0.2863,0.284,0.2719,0.2689,0.2576,0.2536,0.2458,0.2462,0.237,0.234,0.2389,0.2523,0.2498,0.2384,0.2317,0.2221,0.2039,0.2111,0.2469,0.2511,0.2552,0.2482,0.2151,0.215,0.1644,0.1641,0.1638]},{"header":{"parameterUnit":"m.s-1","parameterCategory":2,"la1":30.2991,"la2":30.254,"lo1":-89.0895,"lo2":-89.0444,"dy":0.0017,"dx":0.0017,"nx":28,"ny":28,"refTime":"2023-10-20T09:00:00:Z","depth":"0","parameterNumber":3,"parameterNumberName":"V-component_of_CURRENTS"},"data":[0,0,0,0,0,0,0,0,0,0,0,0,0,0,0,0,0,0,0,0,0,0,0,0,0,0,0,0,0,0,0,0,0,0,0,0,0,0,0,0,0,0,0,0,0,0,0,0,0,0,0,0,0,0,0,0,0,0,0.0219,0.022,0,0.0228,0.0228,0.0228,0.0211,0.0211,0.0211,0.021,0.0173,0.0172,0.0171,0,0,0,0,0,0,0,0,0,0,0,0,0,0.0185,0.0185,0.0219,0.022,0.022,0.0228,0.0228,0.0228,0.0212,0.0211,0.021,0.021,0.0173,0.0172,0.0171,0,0,0,0,0,0,0,0,0,0,0,0,0,0.0196,0.0186,0.0219,0.0213,0.0213,0.0228,0.0228,0.0228,0.0212,0.0211,0.021,0.021,0.0173,0.0172,0.0171,0.0179,0,0,0.0169,0.0168,0,0,0,0,0,0,0,0,0.0196,0.0197,0.0214,0.0214,0.0214,0.0219,0.0202,0.021,0.0212,0.0211,0.021,0.0209,0.0185,0.0183,0.0185,0.0177,0.0176,0.0168,0.0168,0.0168,0.0167,0,0,0,0,0,0,0,0.0195,0.0197,0.0222,0.0214,0.0214,0.0209,0.021,0.0204,0.02,0.0211,0.021,0.0213,0.0184,0.0186,0.0184,0.0175,0.0168,0.0168,0.0167,0.0167,0.0179,0.018,0,0,0,0,0,0,0.0197,0.0196,0.0221,0.0222,0.0204,0.021,0.0211,0.0217,0.0201,0.0199,0.0214,0.0212,0.0188,0.0185,0.0183,0.0201,0.0168,0.0167,0.0166,0.0178,0.018,0.018,0,0,0,0,0,0,0.0197,0.02,0.0221,0.021,0.0213,0.0212,0.0218,0.0218,0.022,0.0204,0.02,0.0217,0.0187,0.0184,0.0182,0.0198,0.0166,0.0165,0.0177,0.0179,0.018,0.023,0,0,0,0,0,0,0.0196,0.0199,0.0204,0.021,0.0213,0.0235,0.0219,0.0218,0.0223,0.0222,0.0205,0.0201,0.0187,0.0183,0.0181,0.0197,0.0165,0.0176,0.0178,0.018,0.0227,0.0233,0.0238,0,0,0,0,0,0.0194,0.0207,0.0204,0.0207,0.022,0.0236,0.0237,0.0233,0.0224,0.0231,0.022,0.0202,0.0192,0.0183,0.018,0.0196,0.0176,0.0178,0.0179,0.0225,0.0232,0.0237,0,0,0,0,0,0,0.0195,0.0206,0.0203,0.0218,0.0228,0.0233,0.0241,0.0237,0.0235,0.0231,0.0211,0.0207,0.0212,0.0198,0.0189,0.0205,0.0182,0.0183,0.0217,0.0224,0.0229,0.0252,0.0164,0,0,0,0,0,0.0197,0.0209,0.0218,0.0231,0.0237,0.0239,0.0244,0.0243,0.0243,0.0242,0.0231,0.0221,0.0219,0.0216,0.0209,0.0218,0.0206,0.0227,0.0232,0.0236,0.0254,0.0254,0.0261,0.0187,0.0187,0.0187,0,0,0.0202,0.0209,0.0216,0.0231,0.0238,0.026,0.0241,0.0255,0.0273,0.0238,0.0255,0.0238,0.0225,0.0234,0.0236,0.0224,0.0248,0.0239,0.0243,0.0259,0.0257,0.0264,0.027,0.0188,0.0188,0.0188,0,0,0.0226,0.0224,0.0247,0.0256,0.027,0.0275,0.0281,0.0289,0.0292,0.0304,0.0285,0.0281,0.0275,0.0273,0.027,0.0302,0.0274,0.0296,0.0343,0.0342,0.0348,0.0353,0.0332,0.0335,0.03,0.03,0.03,0,0.0231,0.0263,0.0255,0.0281,0.0299,0.0285,0.032,0.0322,0.0328,0.0341,0.0316,0.0322,0.0298,0.0324,0.033,0.0315,0.0303,0.0319,0.0349,0.0354,0.0359,0.0336,0.0339,0.0303,0.0302,0.0302,0.0302,0,0.028,0.0301,0.0316,0.0346,0.0361,0.0387,0.0393,0.0405,0.04,0.0404,0.0423,0.0393,0.0402,0.0387,0.0366,0.0394,0.037,0.0354,0.0334,0.0369,0.0342,0.0344,0.0306,0.0305,0.0305,0.0304,0,0,0.0306,0.0345,0.0351,0.0382,0.04,0.0424,0.0452,0.0486,0.0521,0.0502,0.0548,0.0521,0.0504,0.05,0.0471,0.0462,0.0465,0.0425,0.0424,0.0405,0.0452,0.0417,0.0415,0.0454,0.0456,0.0456,0.0413,0,0.0352,0.0419,0.0422,0.0486,0.0527,0.0523,0.056,0.058,0.0587,0.0622,0.0592,0.0615,0.0548,0.0556,0.0537,0.0496,0.0476,0.0478,0.042,0.0418,0.0384,0.0419,0.0425,0.0387,0.0415,0.0415,0.0416,0,0.0406,0.0446,0.0519,0.0579,0.0597,0.0625,0.0689,0.0721,0.0749,0.0756,0.0761,0.0737,0.073,0.0665,0.0606,0.0611,0.0538,0.0489,0.0486,0.0444,0.0389,0.0359,0.0389,0.031,0.0418,0.0418,0.0418,0,0.0451,0.0516,0.0581,0.06,0.0659,0.0691,0.0725,0.0763,0.0818,0.0847,0.0888,0.0855,0.0862,0.0777,0.0664,0.0641,0.0592,0.0546,0.0442,0.0437,0.0428,0.0421,0.038,0.0502,0.0502,0.0502,0.0502,0,0.0506,0.0557,0.0607,0.0643,0.0733,0.0748,0.0843,0.0868,0.0929,0.1015,0.0964,0.1017,0.0893,0.0845,0.0716,0.0595,0.063,0.0464,0.0435,0.0442,0.0438,0.0355,0.0291,0.05,0.05,0.0501,0.0501,0,0.0545,0.0576,0.0659,0.0729,0.0758,0.0823,0.0927,0.0999,0.1038,0.1149,0.1169,0.1155,0.1087,0.0944,0.0811,0.0677,0.0494,0.0492,0.0498,0.047,0.0285,0.0222,0.0138,0.0103,0.0372,0.0371,0.037,0,0.0571,0.0619,0.0722,0.0781,0.0814,0.091,0.0988,0.1053,0.1137,0.124,0.1305,0.1271,0.1262,0.1045,0.0807,0.0583,0.0476,0.0429,0.0381,0.0291,0.02,0.0161,0.0135,0.0377,0.0377,0.0376,0.0376,0,0.0626,0.066,0.0729,0.0852,0.0939,0.1053,0.1162,0.1247,0.1341,0.1428,0.1517,0.1513,0.1309,0.1096,0.0786,0.0616,0.0373,0.0408,0.0329,0.0219,0.0162,0.011,0.0371,0.0371,0.0371,0.0372,0.0372,0.0372,0.0666,0.0725,0.0817,0.0931,0.1041,0.1178,0.1275,0.1394,0.1536,0.1663,0.1656,0.1674,0.1376,0.0954,0.0723,0.0332,0.0321,0.0209,0.0144,0.0115,0.0079,0.0318,0.0277,0.0277,0.0277,0.0277,0.0277,0,0.0718,0.0787,0.0894,0.1033,0.1151,0.1203,0.1383,0.1483,0.1643,0.1753,0.1811,0.1693,0.1312,0.0934,0.0397,0.0131,0.0047,-0.0007,-0.0047,-0.0059,0.0172,0.0172,0.0092,0.0092,0.0092,0.0092,0.0092,0.0092,0.075,0.0852,0.0904,0.1095,0.1194,0.1355,0.1457,0.1605,0.1722,0.1856,0.1884,0.1885,0.1641,0.0671,0.0078,-0.0069,-0.0218,-0.0279,-0.0342,-0.0176,-0.016,-0.0145,-0.0157,-0.0305,-0.0305,-0.0518,-0.0521,-0.0523]}],[{"header":{"parameterUnit":"m.s-1","parameterCategory":2,"la1":30.2991,"la2":30.254,"lo1":-89.0895,"lo2":-89.0444,"dy":0.0017,"dx":0.0017,"nx":28,"ny":28,"refTime":"2023-10-20T09:00:00:Z","depth":"2","parameterNumber":2,"parameterNumberName":"U-component_of_CURRENTS"},"data":[0,0,0,0,0,0,0,0,0,0,0,0,0,0,0,0,0,0,0,0,0,0,0,0,0,0,0,0,0,0,0,0,0,0,0,0,0,0,0,0,0,0,0,0,0,0,0,0,0,0,0,0,0,0,0,0,0,0,0.2572,0.2572,0,0.2592,0.2592,0.2592,0.2586,0.2586,0.2586,0.2586,0.264,0.2642,0.2644,0,0,0,0,0,0,0,0,0,0,0,0,0,0.2559,0.2559,0.2572,0.2572,0.2573,0.2592,0.2592,0.2592,0.2586,0.2586,0.2586,0.2586,0.264,0.2642,0.2644,0,0,0,0,0,0,0,0,0,0,0,0,0,0.2568,0.2559,0.2572,0.2574,0.2575,0.2592,0.2592,0.2592,0.2586,0.2586,0.2586,0.2586,0.2639,0.2642,0.2644,0.2664,0,0,0.2651,0.2652,0,0,0,0,0,0,0,0,0.2567,0.2568,0.2573,0.2574,0.2575,0.2589,0.2608,0.2619,0.2586,0.2579,0.2586,0.2586,0.2628,0.2632,0.2632,0.2667,0.2669,0.2652,0.2653,0.2654,0.2655,0,0,0,0,0,0,0,0.2566,0.2567,0.2577,0.2574,0.2575,0.2585,0.2586,0.261,0.2603,0.258,0.258,0.2587,0.2629,0.2629,0.2633,0.267,0.2652,0.2654,0.2655,0.2656,0.2769,0.277,0,0,0,0,0,0,0.2568,0.2566,0.2576,0.2578,0.2573,0.2586,0.2586,0.2582,0.2602,0.2606,0.2587,0.2586,0.2625,0.263,0.2635,0.2705,0.2654,0.2656,0.2658,0.2767,0.2769,0.277,0,0,0,0,0,0,0.2567,0.2568,0.2576,0.2575,0.2577,0.2586,0.2582,0.2583,0.2595,0.2608,0.2611,0.26,0.2625,0.2632,0.2661,0.2706,0.2657,0.266,0.2765,0.2768,0.277,0.2818,0,0,0,0,0,0,0.2567,0.2568,0.2572,0.2575,0.2578,0.2592,0.2583,0.2584,0.26,0.26,0.262,0.2624,0.2626,0.2658,0.2664,0.2708,0.2662,0.2763,0.2766,0.2769,0.2814,0.2821,0.2827,0,0,0,0,0,0.2566,0.2571,0.2571,0.2573,0.258,0.2592,0.2594,0.2598,0.2601,0.2608,0.262,0.2624,0.2681,0.266,0.2667,0.2714,0.2762,0.2765,0.2769,0.2811,0.282,0.2827,0,0,0,0,0,0,0.2564,0.2571,0.2572,0.2577,0.2588,0.2593,0.2605,0.2608,0.2623,0.2633,0.2636,0.2641,0.2691,0.2691,0.2669,0.2755,0.2726,0.2731,0.2756,0.2764,0.2771,0.2773,0.2664,0,0,0,0,0,0.2567,0.2573,0.2581,0.2586,0.2595,0.2604,0.2613,0.262,0.2632,0.2638,0.265,0.2674,0.271,0.2725,0.2752,0.2791,0.2793,0.2828,0.2835,0.284,0.2847,0.2884,0.2895,0.2782,0.2782,0.2782,0,0,0.257,0.2574,0.2578,0.2587,0.2597,0.2611,0.2608,0.2632,0.2654,0.2645,0.2679,0.2702,0.2727,0.2774,0.2797,0.2779,0.2873,0.2844,0.2849,0.2853,0.2889,0.29,0.291,0.2784,0.2784,0.2783,0,0,0.2577,0.2582,0.2591,0.26,0.2622,0.2631,0.2642,0.2659,0.268,0.2714,0.2725,0.2765,0.2803,0.2831,0.2852,0.2911,0.2911,0.2928,0.296,0.2997,0.3006,0.3015,0.3024,0.3033,0.2926,0.2926,0.2926,0,0.2589,0.2589,0.2598,0.2606,0.2624,0.2641,0.2663,0.2684,0.271,0.274,0.2733,0.2815,0.2835,0.2904,0.2925,0.2929,0.2937,0.2926,0.3005,0.3014,0.3021,0.3029,0.3038,0.2929,0.2929,0.2928,0.2928,0,0.2587,0.2602,0.2611,0.2627,0.2648,0.2671,0.2704,0.2735,0.2766,0.2788,0.2866,0.2892,0.2941,0.2961,0.2961,0.3038,0.302,0.3013,0.2982,0.3036,0.304,0.3049,0.2933,0.2932,0.2931,0.293,0,0,0.2581,0.2609,0.2611,0.2623,0.2666,0.2675,0.2738,0.2792,0.2825,0.2874,0.2934,0.3001,0.3021,0.3046,0.3064,0.309,0.3149,0.3075,0.3076,0.308,0.3215,0.3076,0.3072,0.3156,0.3158,0.3159,0.3193,0,0.2584,0.2601,0.2625,0.2651,0.2667,0.2716,0.276,0.2815,0.2867,0.2923,0.2994,0.3055,0.3054,0.309,0.3123,0.3149,0.3176,0.314,0.3167,0.3168,0.3034,0.3079,0.2854,0.2854,0.3201,0.3203,0.3204,0,0.2568,0.2584,0.2614,0.2662,0.2675,0.2699,0.2776,0.2827,0.2923,0.2976,0.306,0.3101,0.3186,0.3168,0.3241,0.3219,0.3227,0.3231,0.3232,0.3092,0.3045,0.2859,0.2856,0.3218,0.3217,0.3216,0.3215,0,0.2532,0.2574,0.2597,0.2609,0.2666,0.2705,0.2756,0.2842,0.2902,0.3025,0.3072,0.3168,0.3232,0.3266,0.328,0.3275,0.3328,0.3323,0.3205,0.3195,0.3002,0.297,0.3373,0.3373,0.3373,0.3373,0.3373,0,0.2511,0.2527,0.2576,0.258,0.2623,0.268,0.2748,0.2819,0.2927,0.2985,0.31,0.3148,0.3262,0.3298,0.3301,0.3266,0.3352,0.3216,0.3199,0.3009,0.2979,0.3293,0.3284,0.3374,0.3374,0.3374,0.3374,0,0.2463,0.2496,0.2525,0.2584,0.2606,0.2643,0.2754,0.2783,0.2905,0.2992,0.3043,0.3169,0.3212,0.3267,0.3322,0.328,0.3265,0.323,0.2983,0.2934,0.3107,0.3099,0.3118,0.3114,0.311,0.3107,0.3104,0,0.2446,0.244,0.2513,0.2526,0.2557,0.2622,0.265,0.2778,0.2816,0.2969,0.2988,0.3091,0.3114,0.3137,0.3096,0.3073,0.3169,0.2838,0.2787,0.3101,0.3084,0.3082,0.308,0.2557,0.2551,0.2545,0.254,0,0.2391,0.2414,0.2436,0.2476,0.2504,0.2547,0.2606,0.2634,0.2762,0.2814,0.2861,0.2901,0.2938,0.2812,0.2795,0.2749,0.2823,0.2718,0.3131,0.2642,0.2571,0.2554,0.2571,0.249,0.2495,0.2499,0.2501,0.2503,0.2356,0.2359,0.2381,0.2403,0.2439,0.2449,0.243,0.2478,0.2517,0.2551,0.266,0.2625,0.2647,0.2494,0.239,0.2315,0.2515,0.2414,0.2433,0.2458,0.2372,0.2296,0.2147,0.215,0.2153,0.2155,0.2157,0,0.2279,0.2284,0.2294,0.2312,0.2281,0.235,0.2355,0.2294,0.2254,0.2331,0.2345,0.2143,0.2057,0.2072,0.1879,0.1851,0.1856,0.1773,0.1778,0.1829,0.1875,0.176,0.1373,0.137,0.1368,0.1366,0,0,0.2247,0.2215,0.2203,0.213,0.2133,0.2059,0.2027,0.1968,0.1977,0.191,0.1873,0.2013,0.2045,0.1707,0.1641,0.1479,0.165,0.1416,0.2051,0.2113,0.2156,0.2252,0.2133,0,0,0,0,0]},{"header":{"parameterUnit":"m.s-1","parameterCategory":2,"la1":30.2991,"la2":30.254,"lo1":-89.0895,"lo2":-89.0444,"dy":0.0017,"dx":0.0017,"nx":28,"ny":28,"refTime":"2023-10-20T09:00:00:Z","depth":"2","parameterNumber":3,"parameterNumberName":"V-component_of_CURRENTS"},"data":[0,0,0,0,0,0,0,0,0,0,0,0,0,0,0,0,0,0,0,0,0,0,0,0,0,0,0,0,0,0,0,0,0,0,0,0,0,0,0,0,0,0,0,0,0,0,0,0,0,0,0,0,0,0,0,0,0,0,0.0235,0.0235,0,0.0244,0.0244,0.0244,0.0235,0.0235,0.0234,0.0234,0.0194,0.0193,0.0192,0,0,0,0,0,0,0,0,0,0,0,0,0,0.0202,0.0203,0.0235,0.0235,0.0235,0.0244,0.0244,0.0244,0.0235,0.0235,0.0234,0.0234,0.0194,0.0193,0.0192,0,0,0,0,0,0,0,0,0,0,0,0,0,0.0214,0.0203,0.0235,0.0232,0.0232,0.0244,0.0244,0.0244,0.0235,0.0235,0.0234,0.0234,0.0194,0.0193,0.0192,0.0194,0,0,0.0188,0.0188,0,0,0,0,0,0,0,0,0.0213,0.0215,0.0233,0.0233,0.0232,0.0238,0.0218,0.0225,0.0235,0.0234,0.0234,0.0234,0.0205,0.0203,0.0205,0.0192,0.019,0.0188,0.0187,0.0187,0.0187,0,0,0,0,0,0,0,0.0213,0.0215,0.0238,0.0233,0.0233,0.0228,0.0229,0.0219,0.022,0.0234,0.0233,0.0235,0.0204,0.0207,0.0204,0.019,0.0188,0.0187,0.0186,0.0186,0.018,0.0181,0,0,0,0,0,0,0.0214,0.0214,0.0238,0.0238,0.0222,0.0229,0.023,0.0237,0.0221,0.0219,0.0235,0.0235,0.0209,0.0206,0.0203,0.0215,0.0187,0.0186,0.0185,0.018,0.018,0.0181,0,0,0,0,0,0,0.0213,0.0216,0.0238,0.0226,0.0229,0.023,0.0237,0.0237,0.024,0.0224,0.022,0.0239,0.0208,0.0204,0.0199,0.0213,0.0185,0.0184,0.0179,0.018,0.0181,0.0233,0,0,0,0,0,0,0.0212,0.0216,0.022,0.0227,0.023,0.0251,0.0238,0.0238,0.0242,0.0241,0.0225,0.0221,0.0208,0.0201,0.0198,0.0211,0.0183,0.0178,0.0179,0.018,0.0231,0.0236,0.024,0,0,0,0,0,0.0211,0.0224,0.022,0.0223,0.0236,0.0252,0.0253,0.0251,0.0243,0.0251,0.0238,0.0222,0.0205,0.02,0.0197,0.021,0.0178,0.0179,0.018,0.0229,0.0235,0.024,0,0,0,0,0,0,0.0212,0.0224,0.0221,0.0236,0.0244,0.025,0.0259,0.0255,0.0252,0.0249,0.0228,0.0224,0.0225,0.0209,0.0205,0.0211,0.0189,0.019,0.0227,0.0233,0.0237,0.0255,0.0182,0,0,0,0,0,0.0215,0.0227,0.0235,0.0247,0.0254,0.0256,0.0261,0.0261,0.026,0.0258,0.0245,0.0233,0.0229,0.0224,0.0215,0.0218,0.02,0.0223,0.0228,0.0232,0.0244,0.0229,0.0233,0.0185,0.0185,0.0185,0,0,0.0218,0.0226,0.0233,0.0248,0.0255,0.0276,0.0258,0.0272,0.0288,0.0253,0.0266,0.0248,0.0233,0.0239,0.0238,0.0226,0.0235,0.0234,0.0238,0.0248,0.0231,0.0235,0.0239,0.0186,0.0186,0.0186,0,0,0.0241,0.0241,0.0263,0.0273,0.0287,0.0291,0.0296,0.0303,0.0305,0.0314,0.0294,0.0286,0.0276,0.0271,0.0267,0.0291,0.026,0.0285,0.0323,0.0308,0.0312,0.0315,0.0293,0.0294,0.0287,0.0287,0.0287,0,0.0244,0.0275,0.0271,0.0296,0.0313,0.0301,0.0332,0.0334,0.0336,0.0344,0.0324,0.0318,0.0297,0.0312,0.0318,0.0303,0.0285,0.0304,0.0314,0.0317,0.032,0.0296,0.0296,0.029,0.0289,0.0289,0.0289,0,0.0289,0.0311,0.0326,0.0355,0.0369,0.0394,0.0399,0.0408,0.0403,0.0403,0.0412,0.0383,0.0383,0.037,0.0351,0.0363,0.0341,0.0322,0.0302,0.0328,0.0301,0.03,0.0293,0.0292,0.0292,0.0291,0,0,0.0308,0.0351,0.0356,0.0385,0.0405,0.0427,0.0451,0.0478,0.0503,0.0485,0.0515,0.0491,0.0471,0.0465,0.0435,0.0416,0.0408,0.0379,0.0377,0.0361,0.0369,0.0335,0.0331,0.0389,0.0389,0.0389,0.0341,0,0.0349,0.0412,0.0419,0.0479,0.0516,0.0514,0.0545,0.056,0.0562,0.0582,0.0551,0.0564,0.0509,0.0512,0.0484,0.0433,0.041,0.0422,0.0344,0.0341,0.0311,0.0331,0.0331,0.0286,0.034,0.034,0.034,0,0.0396,0.0435,0.0502,0.0559,0.0575,0.0602,0.0653,0.068,0.0693,0.0697,0.0691,0.0663,0.0642,0.0589,0.0512,0.0522,0.0454,0.0403,0.0399,0.0353,0.0308,0.027,0.0283,0.0338,0.0338,0.0338,0.0338,0,0.0432,0.0495,0.0554,0.0572,0.0629,0.0657,0.0689,0.0714,0.0759,0.0772,0.0799,0.0755,0.0751,0.066,0.054,0.0533,0.0443,0.042,0.0324,0.0321,0.0299,0.0293,0.0366,0.0366,0.0366,0.0367,0.0367,0,0.048,0.0526,0.0576,0.061,0.069,0.0706,0.0788,0.0807,0.0853,0.092,0.0864,0.0892,0.077,0.0697,0.0574,0.0445,0.0467,0.0339,0.0311,0.0316,0.0312,0.034,0.0338,0.0365,0.0365,0.0365,0.0366,0,0.051,0.0541,0.0617,0.0684,0.0711,0.0769,0.0865,0.0925,0.0952,0.1035,0.1048,0.1007,0.0917,0.0769,0.0623,0.0504,0.0371,0.0315,0.0323,0.0296,0.0252,0.0253,0.0225,0.0223,0.0222,0.0221,0.022,0,0.0533,0.0574,0.0671,0.0726,0.0759,0.0848,0.0918,0.0975,0.1044,0.1106,0.115,0.109,0.1054,0.0813,0.0596,0.0382,0.0355,0.0236,0.0225,0.0265,0.024,0.0243,0.0246,0.0212,0.0211,0.021,0.021,0,0.0576,0.0608,0.0671,0.0785,0.0866,0.0972,0.1068,0.114,0.1216,0.1271,0.1315,0.1287,0.1073,0.0853,0.0556,0.0404,0.0271,0.0216,0.0262,0.0247,0.0249,0.0226,0.023,0.0203,0.0204,0.0205,0.0205,0.0205,0.0607,0.0659,0.0744,0.0851,0.0953,0.1079,0.1164,0.1264,0.1374,0.1456,0.1424,0.1377,0.1139,0.0757,0.0493,0.022,0.025,0.0146,0.015,0.0154,0.0161,0.0161,0.0099,0.0099,0.0099,0.0099,0.0099,0,0.0648,0.0711,0.0808,0.0938,0.1047,0.1098,0.1254,0.1333,0.1453,0.1519,0.154,0.1294,0.1044,0.0765,0.0365,0.0132,0.0115,0.0044,0.0079,0.0087,0.0094,0.0099,0.002,0.0019,0.0018,0.0017,0,0,0.0674,0.0764,0.0812,0.0986,0.108,0.1224,0.1312,0.1426,0.1502,0.1553,0.1524,0.1467,0.113,0.0825,0.0498,0.0263,0.0229,0.0208,0.0296,0.0385,0.0394,0.0174,0.0193,0,0,0,0,0]}],[{"header":{"parameterUnit":"m.s-1","parameterCategory":2,"la1":30.2991,"la2":30.254,"lo1":-89.0895,"lo2":-89.0444,"dy":0.0017,"dx":0.0017,"nx":28,"ny":28,"refTime":"2023-10-20T09:00:00:Z","depth":"4","parameterNumber":2,"parameterNumberName":"U-component_of_CURRENTS"},"data":[0,0,0,0,0,0,0,0,0,0,0,0,0,0,0,0,0,0,0,0,0,0,0,0,0,0,0,0,0,0,0,0,0,0,0,0,0,0,0,0,0,0,0,0,0,0,0,0,0,0,0,0,0,0,0,0,0,0,0.1363,0.1363,0,0.1376,0.1376,0.1376,0.1384,0.1385,0.1385,0.1386,0.1441,0.1442,0.1443,0,0,0,0,0,0,0,0,0,0,0,0,0,0.1342,0.1342,0.1363,0.1364,0.1364,0.1376,0.1376,0.1376,0.1384,0.1385,0.1385,0.1386,0.1441,0.1442,0.1443,0,0,0,0,0,0,0,0,0,0,0,0,0,0.1349,0.1342,0.1363,0.1373,0.1374,0.1376,0.1376,0.1376,0.1384,0.1385,0.1385,0.1386,0.144,0.1442,0.1444,0.1442,0,0,0.1449,0.1449,0,0,0,0,0,0,0,0,0.1349,0.135,0.1371,0.1372,0.1373,0.1383,0.139,0.1401,0.1384,0.1376,0.1386,0.1386,0.1428,0.143,0.1425,0.1444,0.1447,0.1449,0.145,0.1451,0.1451,0,0,0,0,0,0,0,0.1349,0.1349,0.1364,0.1371,0.1373,0.1376,0.1377,0.1391,0.1396,0.1377,0.1379,0.1386,0.1428,0.1424,0.1427,0.1448,0.1449,0.145,0.1451,0.1452,0.155,0.1552,0,0,0,0,0,0,0.1354,0.1349,0.1364,0.1365,0.1367,0.1376,0.1377,0.1376,0.1395,0.1399,0.1385,0.1386,0.1421,0.1425,0.1429,0.15,0.1451,0.1452,0.1453,0.1548,0.155,0.1552,0,0,0,0,0,0,0.1353,0.1355,0.1364,0.1361,0.1363,0.1376,0.1374,0.1376,0.1406,0.1402,0.1406,0.1418,0.1421,0.1427,0.1466,0.15,0.1453,0.1454,0.1546,0.1549,0.1551,0.1596,0,0,0,0,0,0,0.1352,0.1354,0.137,0.1361,0.1363,0.1383,0.1374,0.1376,0.1409,0.1411,0.1431,0.1434,0.1422,0.1463,0.1467,0.1501,0.1456,0.1544,0.1548,0.155,0.1592,0.1599,0.1606,0,0,0,0,0,0.1351,0.1355,0.137,0.1373,0.1378,0.1384,0.1385,0.1394,0.141,0.1423,0.144,0.1435,0.1486,0.1466,0.147,0.1505,0.1543,0.1547,0.155,0.1589,0.1598,0.1605,0,0,0,0,0,0,0.1348,0.1357,0.1372,0.1379,0.1395,0.1387,0.1404,0.1417,0.1439,0.1454,0.1452,0.1456,0.1503,0.1501,0.148,0.1544,0.1516,0.1521,0.1544,0.1552,0.1559,0.1569,0.1457,0,0,0,0,0,0.1359,0.1369,0.1379,0.139,0.1402,0.1415,0.1427,0.1437,0.1449,0.1461,0.1476,0.1497,0.1515,0.1533,0.1545,0.1581,0.1587,0.1609,0.1615,0.1621,0.1634,0.1679,0.169,0.1564,0.1564,0.1564,0,0,0.1363,0.1369,0.1378,0.1393,0.1407,0.1422,0.1423,0.145,0.1473,0.1465,0.151,0.1524,0.1531,0.1565,0.1587,0.1572,0.1658,0.1625,0.163,0.164,0.1684,0.1696,0.1707,0.1566,0.1566,0.1566,0,0,0.1364,0.1384,0.1395,0.1411,0.1442,0.1449,0.1469,0.1488,0.1512,0.1551,0.1554,0.1588,0.162,0.1625,0.1632,0.1687,0.1692,0.1704,0.1747,0.179,0.1801,0.1811,0.1819,0.183,0.1707,0.1707,0.1708,0,0.1379,0.1384,0.1401,0.1415,0.1436,0.1468,0.1489,0.1511,0.1545,0.1574,0.1576,0.164,0.1643,0.1686,0.1704,0.1702,0.1724,0.1712,0.1799,0.1808,0.1817,0.1824,0.1835,0.171,0.171,0.1709,0.1709,0,0.1374,0.1399,0.1408,0.1438,0.1462,0.1487,0.1521,0.1564,0.1604,0.1626,0.1695,0.1702,0.1742,0.175,0.1744,0.1815,0.1808,0.1801,0.1776,0.1833,0.1836,0.1846,0.1714,0.1713,0.1712,0.1711,0,0,0.1361,0.1401,0.141,0.1432,0.1482,0.1494,0.1554,0.1607,0.1657,0.1702,0.1758,0.1796,0.1822,0.1833,0.1839,0.1875,0.1943,0.1877,0.1878,0.1881,0.2034,0.1888,0.1885,0.1966,0.1968,0.197,0.2004,0,0.1365,0.1392,0.1415,0.1456,0.1476,0.1531,0.1576,0.1634,0.1695,0.1756,0.1796,0.1851,0.1847,0.1882,0.192,0.1946,0.1977,0.1934,0.1983,0.1984,0.1844,0.1894,0.1978,0.2012,0.2014,0.2016,0.2017,0,0.1353,0.1375,0.1412,0.147,0.1486,0.152,0.1614,0.1663,0.1758,0.1811,0.1886,0.1919,0.1989,0.1973,0.2054,0.2038,0.2048,0.2055,0.2056,0.1915,0.1858,0.1948,0.2035,0.2034,0.2032,0.2031,0.203,0,0.1319,0.1374,0.1405,0.1424,0.1491,0.1536,0.1589,0.1686,0.1745,0.1863,0.1921,0.2,0.2053,0.2097,0.2122,0.211,0.2193,0.2167,0.2038,0.2027,0.2127,0.2116,0.2222,0.2222,0.2222,0.2222,0.2222,0,0.1294,0.1325,0.1397,0.1409,0.1468,0.1524,0.1607,0.1683,0.1787,0.1857,0.1954,0.2009,0.2098,0.2148,0.2155,0.2126,0.2224,0.2054,0.2034,0.2141,0.2133,0.2132,0.2121,0.2223,0.2223,0.2223,0.2222,0,0.1243,0.1292,0.1335,0.1416,0.1451,0.1498,0.1617,0.1664,0.1789,0.1888,0.1933,0.2047,0.2112,0.2162,0.2222,0.2151,0.2143,0.2106,0.2212,0.2196,0.1935,0.1927,0.1958,0.1953,0.1949,0.1946,0.1943,0,0.1213,0.1227,0.1331,0.1364,0.1407,0.1489,0.1536,0.1662,0.1714,0.1889,0.1912,0.2026,0.2087,0.205,0.2109,0.21,0.2073,0.2045,0.1991,0.1935,0.1913,0.1911,0.1907,0.1937,0.1936,0.1935,0.1934,0,0.1149,0.1203,0.1238,0.1313,0.1371,0.1426,0.1508,0.1538,0.1678,0.1807,0.1861,0.1889,0.1944,0.1963,0.1972,0.1962,0.2051,0.2003,0.201,0.196,0.191,0.1891,0.1893,0.192,0.1922,0.1923,0.1924,0,0.1111,0.1126,0.1184,0.1244,0.1312,0.1333,0.1391,0.1441,0.1512,0.1699,0.1711,0.1827,0.1935,0.189,0.19,0.1879,0.1839,0.1764,0.1783,0.1799,0.1727,0.1639,0.1558,0,0,0,0,0,0.106,0.1065,0.1104,0.1157,0.1219,0.1261,0.135,0.1404,0.1546,0.1544,0.1627,0.1674,0.1693,0.1737,0.1679,0.1804,0.1834,0.1726,0.1755,0.1844,0.186,0.1788,0,0,0,0,0,0,0.1024,0.1056,0.1071,0.1071,0.1089,0.1139,0.1191,0.1281,0.1284,0.1438,0.1454,0.1569,0.1604,0.172,0.1652,0.1663,0.1643,0.1796,0.1791,0.1835,0.185,0.1862,0.1794,0,0,0,0,0]},{"header":{"parameterUnit":"m.s-1","parameterCategory":2,"la1":30.2991,"la2":30.254,"lo1":-89.0895,"lo2":-89.0444,"dy":0.0017,"dx":0.0017,"nx":28,"ny":28,"refTime":"2023-10-20T09:00:00:Z","depth":"4","parameterNumber":3,"parameterNumberName":"V-component_of_CURRENTS"},"data":[0,0,0,0,0,0,0,0,0,0,0,0,0,0,0,0,0,0,0,0,0,0,0,0,0,0,0,0,0,0,0,0,0,0,0,0,0,0,0,0,0,0,0,0,0,0,0,0,0,0,0,0,0,0,0,0,0,0,0.0222,0.0222,0,0.0229,0.0229,0.0229,0.0231,0.0231,0.0231,0.0231,0.0208,0.0208,0.0207,0,0,0,0,0,0,0,0,0,0,0,0,0,0.019,0.0191,0.0222,0.0222,0.0222,0.0229,0.0229,0.0229,0.0231,0.0231,0.0231,0.0231,0.0209,0.0208,0.0207,0,0,0,0,0,0,0,0,0,0,0,0,0,0.0201,0.0191,0.0222,0.0225,0.0225,0.0229,0.0229,0.0229,0.0231,0.0231,0.0231,0.0231,0.0209,0.0208,0.0207,0.02,0,0,0.0204,0.0204,0,0,0,0,0,0,0,0,0.02,0.0202,0.0224,0.0224,0.0225,0.023,0.021,0.0218,0.0231,0.0228,0.0231,0.0231,0.0213,0.0212,0.0212,0.0199,0.0198,0.0204,0.0204,0.0203,0.0203,0,0,0,0,0,0,0,0.0199,0.0201,0.0224,0.0224,0.0225,0.0219,0.022,0.0211,0.0219,0.0228,0.0228,0.023,0.0213,0.0213,0.0212,0.0198,0.0204,0.0203,0.0203,0.0202,0.019,0.019,0,0,0,0,0,0,0.0201,0.0201,0.0224,0.0224,0.0213,0.0219,0.0221,0.0227,0.022,0.0219,0.023,0.023,0.0215,0.0213,0.0211,0.0225,0.0203,0.0202,0.0202,0.0189,0.019,0.019,0,0,0,0,0,0,0.0201,0.0203,0.0223,0.0213,0.0215,0.022,0.0227,0.0227,0.0233,0.0222,0.0221,0.0236,0.0215,0.0212,0.0213,0.0223,0.0202,0.0201,0.0189,0.019,0.019,0.0237,0,0,0,0,0,0,0.02,0.0203,0.0209,0.0213,0.0216,0.0233,0.0227,0.0228,0.0235,0.0235,0.0226,0.0224,0.0215,0.0215,0.0212,0.0221,0.02,0.0189,0.0189,0.019,0.0236,0.0239,0.0242,0,0,0,0,0,0.0199,0.0212,0.021,0.0212,0.0224,0.0234,0.0235,0.0237,0.0235,0.0242,0.0237,0.0225,0.0215,0.0214,0.0211,0.022,0.0189,0.0189,0.019,0.0234,0.0239,0.0242,0,0,0,0,0,0,0.0202,0.0213,0.0211,0.0227,0.0231,0.0235,0.0244,0.0241,0.0243,0.0245,0.023,0.0228,0.0231,0.0217,0.0217,0.0216,0.0199,0.0199,0.0233,0.0237,0.0241,0.0248,0.02,0,0,0,0,0,0.0205,0.0218,0.0223,0.0235,0.024,0.0241,0.0245,0.0247,0.0249,0.025,0.0243,0.0235,0.023,0.0228,0.022,0.0221,0.0196,0.0223,0.0227,0.023,0.0233,0.0202,0.0203,0.0192,0.0192,0.0192,0,0,0.0209,0.0217,0.0224,0.0236,0.0242,0.0256,0.0244,0.0257,0.027,0.0246,0.026,0.0247,0.0232,0.0237,0.0236,0.0228,0.0219,0.023,0.0233,0.0234,0.0203,0.0204,0.0205,0.0192,0.0192,0.0192,0,0,0.0227,0.0233,0.0249,0.0257,0.0268,0.0271,0.0277,0.0282,0.0286,0.0295,0.0281,0.0274,0.0269,0.0259,0.0254,0.0269,0.0238,0.0266,0.0292,0.0262,0.0263,0.0263,0.0233,0.023,0.0269,0.0269,0.0269,0,0.023,0.0254,0.0255,0.0273,0.0286,0.0281,0.0302,0.0306,0.031,0.0313,0.0306,0.0293,0.0279,0.028,0.0288,0.0277,0.0256,0.028,0.0267,0.0267,0.0267,0.0235,0.0232,0.0271,0.0271,0.0271,0.0271,0,0.026,0.028,0.0293,0.0315,0.0326,0.0346,0.0351,0.036,0.0361,0.0358,0.0358,0.0338,0.0329,0.0322,0.0313,0.0306,0.0289,0.0275,0.0259,0.0271,0.0237,0.0232,0.0275,0.0274,0.0273,0.0273,0,0,0.0269,0.0307,0.0312,0.0332,0.0353,0.0367,0.0388,0.0404,0.0419,0.0408,0.0417,0.0403,0.0384,0.0376,0.0355,0.0332,0.0309,0.0309,0.0306,0.0282,0.0244,0.023,0.0223,0.0294,0.0294,0.0293,0.0221,0,0.0294,0.034,0.0351,0.0394,0.042,0.0425,0.0449,0.0458,0.0458,0.0463,0.0433,0.0434,0.0407,0.0405,0.0377,0.0328,0.0299,0.033,0.0232,0.0229,0.0219,0.0218,0.0292,0.0218,0.0217,0.0216,0.0215,0,0.0321,0.0351,0.04,0.0445,0.0457,0.048,0.0514,0.0535,0.0534,0.0533,0.0516,0.0489,0.0459,0.0431,0.0349,0.0371,0.0313,0.0269,0.0265,0.0233,0.0207,0.0202,0.0206,0.0207,0.0208,0.0208,0.0209,0,0.0333,0.0385,0.0429,0.0443,0.049,0.0514,0.0541,0.0556,0.0583,0.0575,0.0582,0.0533,0.0516,0.0438,0.0344,0.0349,0.0242,0.0233,0.0163,0.0161,0.0173,0.0174,0.0168,0.0168,0.0168,0.0168,0.0168,0,0.0358,0.0393,0.0441,0.0465,0.0525,0.0543,0.0601,0.0615,0.0638,0.0672,0.0622,0.062,0.0518,0.0443,0.0353,0.0242,0.0244,0.0166,0.0142,0.0195,0.0198,0.017,0.0171,0.0165,0.0166,0.0166,0.0167,0,0.0365,0.0397,0.0453,0.0511,0.0535,0.0579,0.0656,0.0691,0.0706,0.0744,0.0745,0.0687,0.0596,0.0476,0.0343,0.0261,0.015,0.0106,0.0169,0.015,0.0087,0.0091,0.003,0.0029,0.0028,0.0027,0.0026,0,0.0374,0.0403,0.0486,0.0529,0.0561,0.0632,0.0684,0.0727,0.0763,0.0784,0.0796,0.0722,0.0669,0.0466,0.0336,0.0153,0.0126,0.0059,0.0077,0.009,0.0072,0.0078,0.0084,0.0025,0.0025,0.0024,0.0024,0,0.0387,0.0419,0.0467,0.0556,0.0621,0.07,0.077,0.0802,0.0851,0.0863,0.0841,0.0741,0.0633,0.0474,0.0324,0.0194,0.0099,0.0049,0.0051,0.0067,0.0083,0.0068,0.0075,0.0021,0.0021,0.0022,0.0022,0,0.0399,0.0434,0.0498,0.058,0.0665,0.0741,0.0782,0.0826,0.0866,0.0884,0.0873,0.0761,0.0698,0.0494,0.0357,0.0225,0.0197,0.0148,0.0144,0.0146,0.0198,0.0237,0.0201,0,0,0,0,0,0.0407,0.0449,0.0518,0.0608,0.0691,0.0744,0.0828,0.0859,0.0902,0.0895,0.089,0.0792,0.0601,0.0511,0.0379,0.0332,0.0164,0.017,0.0103,0.0004,0.0007,0.0048,0,0,0,0,0,0,0.0413,0.0475,0.0512,0.0616,0.068,0.0772,0.083,0.086,0.0855,0.0876,0.0775,0.0745,0.0555,0.0678,0.0372,0.0333,0.0268,0.0087,0.0084,0.0002,0.0005,0.0008,0.0051,0,0,0,0,0]}]]